SCP
4 4 3 2 2 3 3 3 4 3 3 4 4 4 3 1 1 1 1 2 2 1 1 1 1 1 1 1 1 1 1 1 1 1 1 1 0 0 0 0 0 0 0
4 4 3 2 3 3 4 4 4 4 4 4 4 4 2 2 1 1 2 2 2 2 2 2 2 2 2 2 2 2 2 1 1 1 1 1 1 1 1 1 1 0 0
4 3 3 2 3 4 4 4 4 4 4 5 4 3 3 2 2 1 2 2 3 2 2 2 2 2 2 3 3 3 2 2 2 2 2 1 1 1 1 1 1 1 1
3 3 3 3 3 3 4 4 5 5 5 5 5 4 3 3 2 2 1 2 2 2 2 1 2 2 3 4 4 4 3 3 2 2 2 2 1 1 1 1 1 1 1
2 3 4 4 3 2 3 4 5 5 5 5 5 4 3 3 2 2 2 2 2 2 2 2 2 2 3 4 5 4 4 3 2 2 2 2 2 1 1 1 1 1 1
2 3 4 3 2 2 2 3 4 4 4 4 4 4 3 3 3 2 2 2 2 2 2 2 1 2 3 4 4 3 3 3 2 2 2 3 2 2 1 1 1 1 1
3 3 3 3 2 2 2 3 3 4 4 4 3 3 3 3 3 3 2 2 2 2 2 2 1 1 2 3 3 2 2 2 2 2 2 2 2 2 2 2 1 1 1
3 2 2 2 2 2 2 2 3 4 4 4 3 3 3 3 3 3 2 2 2 2 2 2 1 2 2 2 3 3 2 2 2 2 2 2 2 2 2 2 2 2 2
2 2 2 2 2 2 2 2 3 4 4 4 3 3 3 3 3 2 2 2 2 2 2 2 2 2 2 2 3 3 2 2 2 1 2 2 2 3 3 3 2 2 2
2 2 3 3 3 2 2 2 3 4 5 4 3 3 2 2 2 2 2 2 2 2 2 2 2 2 2 3 3 3 2 2 1 1 2 2 2 3 3 3 2 2 2
2 3 3 4 4 3 3 3 4 4 4 4 3 2 2 2 2 2 2 2 2 2 2 2 2 3 3 4 3 3 2 1 1 1 1 2 2 2 3 3 3 2 2
2 3 3 4 4 3 3 3 3 4 4 4 3 3 2 2 2 2 2 3 3 3 3 2 3 3 4 4 3 2 2 1 1 1 1 2 2 2 3 3 3 2 2
3 3 3 4 4 4 3 3 3 4 4 4 3 3 2 2 2 2 2 3 3 3 3 3 3 3 4 4 3 2 2 2 2 2 2 2 2 3 3 3 3 2 2
3 3 4 4 5 4 4 4 4 5 5 4 4 3 2 2 2 2 2 3 3 3 4 4 3 3 3 4 3 3 2 2 2 2 3 3 3 3 3 3 3 2 2
3 3 4 5 5 5 5 5 5 5 5 5 4 4 3 3 3 3 3 3 4 4 4 4 3 3 3 4 4 3 3 2 2 2 3 3 4 4 3 2 2 2 2
4 4 4 5 6 6 6 6 6 6 5 5 5 4 5 4 4 4 4 4 4 4 4 5 4 4 4 3 3 3 3 3 2 2 3 4 4 3 2 1 1 1 1
5 5 5 5 6 7 7 7 7 6 6 6 5 5 5 5 4 4 4 4 4 5 5 5 5 5 4 2 1 2 2 2 2 2 3 4 3 2 2 1 1 1 1
5 5 5 5 6 7 8 8 7 7 7 7 6 6 6 6 5 5 4 4 4 5 6 6 6 5 4 2 1 1 1 2 2 2 3 3 2 2 2 2 1 1 1
5 6 6 6 7 7 8 9 10 10 9 8 7 9 10 8 7 6 5 5 5 5 6 6 5 5 4 2 1 1 1 2 2 2 2 2 2 1 1 2 2 2 2
5 6 7 8 8 8 9 11 14 14 11 9 10 12 13 11 9 8 7 6 6 6 6 5 5 4 4 2 1 1 2 2 2 2 2 1 1 1 1 1 2 2 2
6 7 8 9 9 9 11 13 15 15 13 12 13 14 12 11 11 11 10 9 8 6 6 5 5 5 4 3 1 1 2 3 2 2 2 2 1 1 0 1 2 2 1
7 8 9 9 8 9 11 13 14 14 13 13 13 12 11 11 12 14 14 12 9 7 6 5 5 5 5 3 2 1 1 2 2 2 2 2 1 0 0 0 1 1 1
9 10 9 9 8 8 10 11 12 11 11 10 10 10 10 10 11 12 12 11 9 7 6 6 5 5 5 3 2 1 0 1 2 2 2 1 1 0 0 0 0 0 1
10 10 9 8 8 8 9 9 10 9 9 9 10 11 11 9 8 8 8 8 7 6 6 5 5 5 4 3 2 2 1 1 1 1 1 1 0 0 0 0 0 0 0
9 8 7 7 7 7 8 8 8 9 10 11 12 11 10 7 5 5 5 4 4 3 3 3 3 3 3 2 2 2 2 1 1 1 1 1 0 0 0 0 0 0 0
9 7 6 6 6 8 8 8 8 9 10 12 12 10 8 5 4 4 3 2 1 1 1 1 2 2 1 1 1 1 1 1 1 1 1 1 1 0 0 0 0 0 0
Wind_Speed
10 10 10 10 10 9 10 10 9 8 7 6 6 6 5 5 5 5 5 6 6 6 6 5 4 5 4 5 5 5 5 4 3 3 3 4 5 5 5 5 5 6 6
11 10 10 10 10 10 10 10 10 9 9 7 5 4 4 4 4 4 4 6 6 6 6 6 5 6 4 5 6 6 5 4 4 4 3 3 4 5 6 5 6 6 5
11 11 11 11 10 10 11 9 10 10 10 8 6 5 4 4 5 5 5 6 6 7 6 6 6 5 6 5 6 6 7 5 4 4 3 3 2 2 3 5 5 5 5
11 11 11 11 10 10 10 10 9 9 9 9 8 8 6 5 5 4 4 5 6 7 7 7 6 6 6 5 7 7 5 6 5 4 5 5 4 3 2 4 5 6 6
12 12 11 10 10 9 9 9 9 9 9 9 8 8 7 5 4 4 4 5 5 6 7 6 6 6 6 6 7 5 6 6 6 5 4 5 5 7 5 4 3 4 5
12 11 10 9 9 9 9 9 9 9 9 9 9 9 7 6 5 5 4 5 4 4 6 7 6 6 6 6 6 6 7 7 6 6 5 5 5 5 5 5 5 4 4
11 11 11 11 10 9 9 9 10 9 9 9 9 8 7 6 7 6 5 5 4 4 4 5 5 5 6 6 6 7 7 7 7 7 6 6 6 5 5 5 5 5 4
11 12 12 11 10 10 10 9 9 8 8 8 8 7 7 6 4 5 4 4 4 3 3 5 5 6 7 7 6 6 7 6 7 8 7 6 6 6 5 5 5 5 5
11 11 11 11 10 9 9 9 9 8 8 8 7 7 6 5 4 4 5 4 4 4 4 5 5 6 6 7 7 6 7 6 7 7 7 7 5 5 5 5 5 6 6
11 11 11 11 10 9 9 9 8 8 8 8 7 6 5 5 5 5 4 4 4 4 5 5 5 6 6 6 6 6 6 6 6 5 6 6 5 4 5 5 5 5 6
11 11 10 10 10 10 10 9 9 8 8 7 6 5 5 5 5 4 4 4 4 4 5 5 5 5 5 5 4 5 6 7 6 6 6 6 6 5 5 5 5 6 5
10 11 11 11 10 10 10 9 9 9 8 7 7 6 5 5 5 4 4 4 4 4 4 4 5 5 4 4 5 6 6 6 7 7 6 6 5 6 5 5 6 5 5
10 10 11 11 10 10 10 9 9 8 8 8 7 7 6 6 5 4 4 4 4 4 4 4 4 4 3 4 5 5 5 6 6 6 6 6 6 6 5 5 5 5 4
9 10 11 10 10 10 9 9 8 8 8 8 8 7 6 5 5 4 3 4 4 4 4 3 3 3 2 3 4 4 4 5 5 5 5 5 5 6 5 5 5 4 4
9 10 11 10 10 10 10 9 8 8 8 8 7 7 6 5 4 4 3 3 4 3 3 3 3 3 2 2 3 4 4 4 4 4 4 4 2 3 3 4 4 4 5
9 10 10 11 11 11 10 10 9 9 8 8 7 6 6 5 4 4 3 3 3 3 2 3 3 2 1 2 3 4 4 3 4 4 3 3 2 2 3 4 4 5 6
7 8 9 10 10 10 10 10 9 9 9 8 7 6 6 5 4 4 3 3 3 3 2 2 2 1 1 1 2 3 4 3 3 3 2 3 1 2 3 3 4 4 3
4 6 7 8 9 9 9 9 9 9 9 8 7 6 5 5 4 3 2 2 2 2 2 2 1 1 1 1 1 4 4 2 2 2 2 2 2 2 3 3 3 2 1
1 3 5 6 7 8 9 9 9 9 8 7 6 6 5 5 5 4 3 2 2 2 2 2 1 1 1 1 1 5 3 2 2 1 1 2 2 2 3 3 3 3 1
1 2 3 5 6 7 8 9 9 9 7 6 5 5 5 5 4 4 3 3 3 3 3 2 2 1 0 2 1 4 3 2 2 1 1 1 1 1 2 4 3 3 2
3 3 4 5 6 6 7 7 7 7 6 6 5 4 4 3 3 3 3 3 3 3 3 3 2 2 0 2 1 2 3 2 2 2 1 1 2 0 2 4 3 2 3
3 4 5 5 5 6 7 7 6 5 5 5 5 4 3 2 2 3 3 3 3 4 3 3 2 2 1 0 2 1 2 5 3 2 1 2 2 1 2 2 1 2 4
4 4 6 6 5 5 6 6 6 6 6 6 5 4 3 2 2 2 3 3 3 3 2 2 2 1 1 2 3 3 2 3 2 1 3 2 1 2 3 2 3 4 3
4 4 5 6 5 4 4 5 5 5 6 6 5 4 3 3 2 1 1 1 1 1 1 2 1 1 1 0 0 1 2 3 3 1 2 4 3 2 0 2 3 2 1
4 4 4 5 5 5 4 4 4 4 4 5 4 4 3 3 2 2 2 1 2 2 1 1 1 1 0 2 3 3 2 2 1 2 2 1 1 1 1 1 1 1 1
3 4 5 5 5 4 4 3 3 3 4 4 4 3 3 3 2 3 4 6 4 5 5 5 4 3 4 3 2 1 2 2 1 3 1 1 1 1 1 1 1 1 0
Wind_Direction
186 182 187 193 192 193 196 199 202 196 199 205 209 206 213 218 219 222 218 221 229 224 222 236 212 226 223 218 215 215 209 215 217 231 232 229 223 224 220 226 227 216 217
182 181 186 191 194 194 198 199 202 201 203 203 212 216 222 229 226 232 222 226 227 229 222 227 230 220 222 221 222 218 230 221 207 228 245 241 215 212 219 214 216 223 219
185 181 188 191 193 196 198 201 203 202 205 203 206 208 213 230 223 221 223 226 228 227 234 231 237 232 227 220 224 222 227 231 224 226 240 261 260 241 200 215 219 219 224
189 184 186 188 194 196 195 198 199 202 202 203 212 217 223 229 233 229 225 228 234 236 231 232 233 236 238 229 230 222 228 234 237 232 234 252 278 272 249 213 207 209 219
190 187 188 189 191 191 190 190 193 200 201 205 210 220 231 235 234 232 231 236 233 236 238 234 232 232 238 235 239 237 233 234 241 245 244 241 241 245 254 258 238 224 221
188 184 184 184 187 187 188 190 189 196 199 203 209 221 233 239 243 238 235 231 224 226 232 234 232 235 240 239 240 243 237 238 243 248 249 245 244 243 246 256 253 249 237
184 181 183 183 186 187 187 187 188 193 196 199 207 218 228 234 236 239 226 232 237 230 229 239 237 242 242 245 245 242 248 241 239 243 246 248 250 256 252 252 260 263 255
178 180 182 182 182 184 184 186 186 189 191 197 202 214 221 227 228 229 244 239 247 250 253 245 242 244 246 246 241 243 239 236 238 243 246 250 249 249 247 248 254 259 253
172 175 176 177 179 181 183 184 183 185 189 195 193 204 211 225 232 229 232 237 239 243 240 244 245 248 250 253 247 243 243 238 237 241 237 243 247 245 246 245 240 249 260
173 172 172 173 174 176 176 179 180 182 185 188 195 192 197 206 220 234 236 245 248 249 251 251 251 254 255 253 249 241 236 236 236 239 244 246 247 249 247 246 244 242 251
174 173 171 170 170 170 170 173 174 178 181 185 189 194 196 200 208 217 226 233 240 239 241 248 254 259 261 258 254 254 245 241 238 238 237 243 249 246 251 249 244 242 241
176 173 170 169 172 173 172 171 173 176 178 178 182 189 195 203 212 210 219 228 235 240 241 247 252 260 265 262 257 258 252 249 245 242 244 247 245 240 247 252 253 250 248
179 174 171 174 176 176 174 171 175 176 173 172 178 183 193 198 209 218 223 228 237 243 246 245 251 261 270 263 258 256 254 252 252 250 248 251 251 249 250 250 252 252 249
182 181 176 176 177 176 174 175 176 172 171 173 178 183 193 199 206 213 217 224 231 235 238 240 250 256 261 267 265 259 255 254 254 253 258 261 257 257 257 251 248 251 254
183 186 184 179 179 178 177 176 174 171 172 175 179 181 184 191 201 207 216 219 225 227 220 223 233 248 251 282 288 270 255 257 261 255 256 259 278 305 282 276 268 259 253
190 189 188 183 182 180 180 175 175 171 172 178 179 175 180 186 193 197 200 202 208 216 214 218 225 243 291 17 334 298 273 264 262 260 261 258 241 230 227 249 257 262 259
199 193 190 187 183 180 177 176 174 171 173 177 178 176 183 186 191 200 196 194 199 198 201 216 222 229 359 6 304 292 280 269 271 275 286 284 289 261 250 223 219 234 243
207 197 192 183 179 174 171 172 170 172 175 176 179 180 187 181 175 184 191 199 203 201 200 203 204 215 83 46 307 291 255 264 266 266 262 273 294 324 317 283 265 265 257
218 201 192 178 169 167 162 163 166 168 172 174 176 177 184 179 177 183 188 193 197 196 201 200 214 229 127 71 306 290 251 233 236 254 281 285 282 34 332 279 269 270 262
95 143 157 152 153 158 159 161 162 164 167 167 170 171 175 181 181 175 184 188 198 200 207 190 212 230 195 105 341 298 266 249 242 218 211 66 357 23 307 268 261 260 271
99 120 133 137 139 143 148 151 150 156 156 153 151 155 161 176 178 167 171 184 199 201 206 188 197 212 280 142 112 316 293 285 269 262 260 90 103 246 283 279 276 289 285
101 111 116 114 121 132 137 141 141 142 143 143 139 137 139 155 158 163 171 186 205 204 200 196 204 192 171 108 137 171 292 312 289 288 305 67 99 229 256 272 320 297 265
95 104 112 111 111 126 134 141 136 140 142 136 131 130 128 128 144 170 179 187 210 234 227 217 212 199 168 140 146 177 221 274 282 341 52 71 181 226 207 211 256 250 243
96 102 108 108 104 105 111 121 127 140 144 138 138 138 134 132 118 128 183 185 188 236 247 260 251 223 184 58 96 203 195 197 210 200 153 180 205 239 281 188 212 237 291
87 98 102 105 103 100 101 108 121 138 140 137 136 136 135 129 126 105 57 31 54 18 302 274 274 288 270 42 6 333 325 308 302 258 212 193 184 203 201 206 208 214 200
94 100 102 103 104 103 97 92 103 123 134 137 140 145 146 145 148 135 118 65 59 63 52 33 16 63 58 97 100 23 357 358 318 260 226 213 240 251 253 235 207 206 228